Cut Bank, MT

6:45 PM MDT on August 29, 2016 (GMT -0600)
Cut Bank Municipal

Weather History for KCTB - March, 2013

Change the Weather History Date:

Wednesday, March 20, 2013

  Actual Average Record
Temperature  
Mean Temperature 42 °F 33 °F  
Max Temperature 59 °F 44 °F 72 °F (1910)
Min Temperature 24 °F 22 °F -24 °F (1913)
Degree Days  
Heating Degree Days 23 32  
Month to date heating degree days 702 708  
Since 1 July heating degree days 6441 6768  
Cooling Degree Days 0 0  
Month to date cooling degree days 0 0  
Year to date cooling degree days 0 0  
Moisture  
Dew Point 22 °F    
Average Humidity 60    
Maximum Humidity 85    
Minimum Humidity 35    
Precipitation  
Precipitation T in 0.02 in 0.26 in (1953)
Month to date precipitation 0.02 0.29  
Year to date precipitation 0.75 0.70  
Snow  
Snow 0.00 in - - ()
Snow Depth 0.00 in    
Sea Level Pressure  
Sea Level Pressure 29.65 in    
Wind  
Wind Speed 14 mph (SSW)    
Max Wind Speed 40 mph    
Max Gust Speed 49 mph    
Visibility 10 miles    
Events      
T = Trace of Precipitation, MM = Missing Value Source: NWS Daily Summary

Daily Weather History Graph

Daily Weather History Graph

Search for Another Location

Airport or City:

Trip Planner

Search our weather history database for the weather conditions in past years. The results will help you decide how hot, cold, wet, or windy it might be!

Date:

Astronomy

Mar. 20, 2013 Rise Set
Actual Time 7:31 AM MDT 7:42 PM MDT
Civil Twilight 7:00 AM MDT 8:14 PM MDT
Nautical Twilight 6:23 AM MDT 8:51 PM MDT
Astronomical Twilight 5:45 AM MDT 9:29 PM MDT
Moon 12:55 PM MDT (3/20) 3:40 AM MDT (3/20)
Length of Visible Light 13h 13m
Length of Day
12h 11m
First Quarter, 60% of the Moon is Illuminated
Mar 20
First Quarter
Mar 27
Full
Apr 2
Last Quarter
Apr 10
New
Apr 18
First Quarter

Hourly Weather History & Observations

Time (MDT) Temp. Windchill Dew Point Humidity Pressure Visibility Wind Dir Wind Speed Gust Speed Precip Events Conditions
12:56 AM 28.0 °F - 10.0 °F 47% 30.00 in 10.0 mi North - - N/A   Scattered Clouds
1:56 AM 28.9 °F 21.1 °F 10.0 °F 45% 29.95 in 10.0 mi East 8.1 mph - N/A   Unknown
2:56 AM 28.0 °F 21.7 °F 10.9 °F 49% 29.91 in 10.0 mi ESE 5.8 mph - N/A   Clear
3:56 AM 27.0 °F 16.7 °F 10.9 °F 51% 29.87 in 10.0 mi SE 11.5 mph - N/A   Clear
4:56 AM 25.0 °F 12.2 °F 12.0 °F 58% 29.82 in 10.0 mi SE 16.1 mph - N/A   Clear
5:56 AM 25.0 °F 16.3 °F 12.0 °F 58% 29.78 in 10.0 mi ESE 8.1 mph - N/A   Clear
6:56 AM 25.0 °F 17.1 °F 14.0 °F 63% 29.77 in 10.0 mi SE 6.9 mph - N/A   Mostly Cloudy
7:56 AM 25.0 °F 20.7 °F 15.1 °F 66% 29.75 in 10.0 mi South 3.5 mph - N/A   Overcast
8:56 AM 28.9 °F 21.1 °F 15.1 °F 56% 29.73 in 10.0 mi SE 8.1 mph - N/A   Overcast
9:56 AM 32.0 °F 24.8 °F 17.1 °F 54% 29.69 in 10.0 mi SSE 8.1 mph - N/A   Mostly Cloudy
10:56 AM 39.0 °F 32.3 °F 19.9 °F 46% 29.65 in 10.0 mi SSE 10.4 mph - N/A   Scattered Clouds
11:56 AM 48.0 °F - 23.0 °F 37% 29.60 in 10.0 mi South 13.8 mph - N/A   Mostly Cloudy
12:56 PM 51.1 °F - 27.0 °F 39% 29.57 in 10.0 mi SSW 15.0 mph 21.9 mph N/A   Scattered Clouds
1:56 PM 55.0 °F - 30.0 °F 38% 29.54 in 10.0 mi WSW 18.4 mph - N/A   Clear
2:56 PM 55.0 °F - 28.9 °F 37% 29.51 in 10.0 mi SW 19.6 mph 25.3 mph N/A   Overcast
3:56 PM 57.0 °F - 30.0 °F 36% 29.49 in 10.0 mi SW 25.3 mph 38.0 mph N/A   Partly Cloudy
4:56 PM 55.9 °F - 30.0 °F 37% 29.49 in 10.0 mi WSW 21.9 mph 32.2 mph N/A   Partly Cloudy
5:56 PM 53.1 °F - 28.9 °F 40% 29.49 in 10.0 mi SW 21.9 mph 28.8 mph N/A   Clear
6:56 PM 51.1 °F - 30.0 °F 44% 29.47 in 10.0 mi SW 9.2 mph - N/A   Clear
7:56 PM 44.1 °F 38.6 °F 30.0 °F 58% 29.49 in 10.0 mi WNW 10.4 mph - N/A   Scattered Clouds
8:56 PM 39.0 °F 29.0 °F 35.1 °F 86% 29.55 in 10.0 mi WSW 20.7 mph - 0.00 in   Overcast
9:56 PM 37.9 °F 32.1 °F 32.0 °F 79% 29.52 in 10.0 mi WSW 8.1 mph - N/A   Overcast
10:56 PM 37.9 °F 28.5 °F 28.9 °F 70% 29.49 in 10.0 mi WSW 17.3 mph 26.5 mph N/A   Mostly Cloudy
11:56 PM 37.9 °F 27.6 °F 27.0 °F 65% 29.48 in 10.0 mi WSW 20.7 mph 26.5 mph N/A   Mostly Cloudy